Location: Newark
(54.4333°N, 18.5500°E)
Time: 17:01:26
(UTC+00:00)

Envisat - Pass Details

Date: 11 December 2019
Orbit: 764 x 766 km, 98.1° (Epoch: 23 January)

Event Time Altitude Azimuth Distance (km) Brightness Sun altitude
Rises 05:39:00 0° 16° (NNE) 3,249 6.2 -10.3°
Reaches altitude 10° 05:41:20 10° 19° (NNE) 2,318 5.4 -10.0°
Maximum altitude 05:46:26 70° 103° (ESE) 817 3.4 -9.3°
Drops below altitude 10° 05:51:30 10° 187° (S) 2,300 5.8 -8.7°
Sets 05:53:48 0° 190° (S) 3,221 6.5 -8.4°
